Home   Weather   Cocoa Beach   Past weeks
Flag for USA

Past Weather in Cocoa Beach, Florida, USA — Yesterday and Last 2 Weeks

Now
80 °F

Sunny.


Feels Like: 88 °F
Forecast: 83 / 79 °F
Wind: 14 mph from South

Location: Cocoa / Patrick Air Force Base

Current Time: Oct 19, 2019 at 11:36:20 am

Latest Report: Oct 19, 2019 at 10:56 am


Visibility: 8 mi

Pressure: 29.89 "Hg

Humidity: 100%

Dew Point: 80 °F

Location of Cocoa BeachLocation

Past Weather in Cocoa Beach — Graph

°F

Cocoa Beach Temperature Yesterday

Maximum temperature yesterday: 80 °F (at 4:56 pm)
Minimum temperature yesterday: 72 °F (at 5:56 am)
Average temperature yesterday: 77 °F

High & Low Weather Summary for the Past Weeks

 TemperatureHumidityPressure
High90 °F (Oct 16, 2:56 pm)100% (Oct 6, 6:56 am)30.10 "Hg (Oct 6, 6:56 am)
Low72 °F (Oct 18, 5:56 am)56% (Oct 16, 2:56 pm)29.81 "Hg (Oct 8, 3:56 am)
Average79 °F87%29.95 "Hg
* Reported Oct 4 10:56 am — Oct 19 10:28 am, Cocoa Beach. Weather by CustomWeather, © 2019

Note: Actual official high and low records may vary slightly from our data, if they occured in-between our weather recording intervals... More about our weather records

Advertising

Cocoa Beach Weather History for the Previous 24 Hours

Scroll right to see more
 ConditionsComfort  
Time TempWeatherWind HumidityBarometerVisibility
10:28 am
Sat, Oct 19
81 °FSunny.10 mph100%29.88 "Hg7 mi
9:56 am78 °FLight rain. Fog.7 mph100%29.89 "Hg4 mi
9:27 am77 °FLight rain. Fog.10 mph100%29.89 "Hg5 mi
9:02 am77 °FSunny.12 mph100%29.88 "Hg7 mi
7:56 am79 °FDrizzle. Fog.8 mph100%29.86 "Hg10 mi
7:28 am79 °FDrizzle. Fog.6 mph100%29.85 "Hg10 mi
7:14 am79 °FClear.7 mph100%29.86 "Hg10 mi
6:56 am79 °FDrizzle. Fog.6 mph100%29.85 "Hg10 mi
6:26 am79 °FLight rain. Fog.6 mph100%29.86 "Hg10 mi
6:11 am79 °FLight rain. Fog.8 mph100%29.86 "Hg10 mi
5:56 am78 °FLight rain. Fog.7 mph100%29.86 "Hg10 mi
5:41 am79 °FLight rain. Fog.7 mph100%29.86 "Hg10 mi
5:26 am79 °FLight rain. Fog.8 mph100%29.86 "Hg10 mi
4:56 am78 °FLight rain. Fog.9 mph100%29.87 "Hg10 mi
4:30 am79 °FLight rain. Fog.6 mph100%29.87 "Hg10 mi
3:56 am78 °FClear.6 mph100%29.85 "Hg10 mi
2:56 am79 °FPassing clouds.10 mph100%29.87 "Hg10 mi
2:19 am77 °FPassing clouds.10 mph100%29.87 "Hg10 mi
2:04 am75 °FPassing clouds.14 mph100%29.86 "Hg10 mi
1:56 am76 °FDrizzle. Fog.10 mph100%29.86 "Hg10 mi
1:34 am77 °FLight rain. Fog.9 mph100%29.87 "Hg10 mi
12:56 am75 °FClear.12 mph100%29.89 "Hg10 mi
12:09 am75 °FPassing clouds.14 mph100%29.91 "Hg10 mi
11:56 pm
Fri, Oct 18
75 °FLight rain. Fog.16 mph100%29.92 "Hg10 mi
11:35 pm79 °FDrizzle. Fog.16 mph100%29.92 "Hg10 mi
11:06 pm79 °FPassing clouds.17 mph100%29.91 "Hg10 mi
9:56 pm80 °FPassing clouds.20 mph91%29.89 "Hg10 mi
8:56 pm80 °FClear.16 mph90%29.91 "Hg10 mi
7:56 pm80 °FPassing clouds.15 mph89%29.90 "Hg10 mi
6:56 pm80 °FPassing clouds.13 mph90%29.90 "Hg10 mi
5:56 pm80 °FSunny.9 mph86%29.89 "Hg10 mi
4:56 pm80 °FSunny.9 mph87%29.89 "Hg10 mi
3:56 pm80 °FSunny.5 mph84%29.91 "Hg10 mi
12:56 pm80 °FPassing clouds.6 mph78%29.95 "Hg10 mi
11:56 am80 °FPassing clouds.6 mph78%29.96 "Hg10 mi
Weather by CustomWeather, © 2019

See weather overview